IN3XSV-15 Weather Reports


Display with metric or nautical units.
time (UTC)temp
F
wind
direction
speed
MPH
gust
MPH
rain 1hr
in
rain 24hr
in
rain mn
in
humidity
%
barometer
mb
20260502181504 47 292 0.0 0.0 0.00 0.00 0.00 63 863.6
20260502181004 47 315 0.0 0.0 0.00 0.00 0.00 63 863.6
20260502180504 48 315 0.0 0.0 0.00 0.00 0.00 63 863.6
20260502170504 48 180 0.0 0.0 0.00 0.00 0.00 61 863.6
20260502164004 49 180 0.0 0.0 0.00 0.00 0.00 60 863.7
20260502163504 49 180 0.0 2.0 0.00 0.00 0.00 60 863.7
20260502163004 49 180 0.0 0.0 0.00 0.00 0.00 61 863.6
20260502162504 48 0 0.0 3.0 0.00 0.00 0.00 60 863.7
20260502162004 48 180 0.0 3.0 0.00 0.00 0.00 60 863.7
20260502161504 48 180 0.0 1.0 0.00 0.00 0.00 60 863.8
20260502161004 49 180 0.0 2.0 0.00 0.00 0.00 60 863.6
20260502160504 49 180 2.0 3.0 0.00 0.00 0.00 60 863.7
20260502152004 50 180 1.0 3.0 0.00 0.00 0.00 59 863.9
20260502151504 50 180 1.0 4.0 0.00 0.00 0.00 58 864.0
20260502151004 50 202 1.0 2.0 0.00 0.00 0.00 58 864.0
20260502150504 50 202 0.0 4.0 0.00 0.00 0.00 58 863.9
20260502130505 52 180 9.0 9.0 0.00 0.00 0.00 55 864.6
20260502123505 53 202 0.0 2.0 0.00 0.00 0.00 55 864.7
20260502123005 52 0 1.0 4.0 0.00 0.00 0.00 55 864.4
20260502122505 52 180 0.0 5.0 0.00 0.00 0.00 54 864.6
20260502122005 52 247 0.0 8.0 0.00 0.00 0.00 54 864.6
20260502121505 53 45 0.0 6.0 0.00 0.00 0.00 54 864.5
20260502121005 53 337 0.0 5.0 0.00 0.00 0.00 54 864.6
20260502120505 53 270 0.0 5.0 0.00 0.00 0.00 54 864.7
20260502115505 53 180 3.0 6.0 0.00 0.00 0.00 54 864.6
20260502115005 53 225 0.0 5.0 0.00 0.00 0.00 53 864.6
20260502114505 53 180 0.0 7.0 0.00 0.00 0.00 53 864.6
20260502114005 53 180 2.0 5.0 0.00 0.00 0.00 53 864.8
20260502113505 54 337 0.0 4.0 0.00 0.00 0.00 53 864.6
20260502113005 54 337 0.0 6.0 0.00 0.00 0.00 52 864.8
20260502112505 54 180 5.0 5.0 0.00 0.00 0.00 52 864.8
20260502112005 55 180 3.0 7.0 0.00 0.00 0.00 50 864.7
20260502111505 55 180 3.0 5.0 0.00 0.00 0.00 51 864.8
20260502111005 55 180 0.0 4.0 0.00 0.00 0.00 50 864.6
20260502110505 56 180 3.0 4.0 0.00 0.00 0.00 49 864.8
20260502110005 57 180 2.0 5.0 0.00 0.00 0.00 48 864.8
20260502105505 57 180 0.0 4.0 0.00 0.00 0.00 49 864.9
20260502105005 56 337 0.0 2.0 0.00 0.00 0.00 49 864.9
20260502104505 56 22 0.0 4.0 0.00 0.00 0.00 49 864.9
20260502104005 56 180 1.0 4.0 0.00 0.00 0.00 49 865.0
20260502103505 56 180 0.0 5.0 0.00 0.00 0.00 48 865.0
20260502103005 56 180 0.0 4.0 0.00 0.00 0.00 48 865.0
20260502102505 57 45 0.0 1.0 0.00 0.00 0.00 48 865.0
20260502102005 57 112 0.0 4.0 0.00 0.00 0.00 48 865.0
20260502101505 57 157 0.0 2.0 0.00 0.00 0.00 48 865.2
20260502101005 57 180 2.0 2.0 0.00 0.00 0.00 47 865.1
20260502100505 57 180 0.0 0.0 0.00 0.00 0.00 47 865.2
20260502091505 60 157 0.0 0.0 0.00 0.00 0.00 44 864.9
20260502091005 60 337 0.0 0.0 0.00 0.00 0.00 44 865.0
20260502090505 60 22 0.0 0.0 0.00 0.00 0.00 45 864.8
20260502071505 63 225 0.0 0.0 0.00 0.00 0.00 43 864.6
20260502071005 64 0 0.0 0.0 0.00 0.00 0.00 43 864.7
20260502070505 65 22 0.0 0.0 0.00 0.00 0.00 42 864.6
20260502070005 66 180 0.0 0.0 0.00 0.00 0.00 41 864.7
20260502065505 66 180 0.0 0.0 0.00 0.00 0.00 42 864.7
20260502065005 65 247 0.0 0.0 0.00 0.00 0.00 42 864.7
20260502064505 64 202 0.0 0.0 0.00 0.00 0.00 43 864.6
20260502064005 62 202 0.0 0.0 0.00 0.00 0.00 44 864.6
20260502063505 60 202 0.0 0.0 0.00 0.00 0.00 46 864.6
20260502063005 57 202 0.0 0.0 0.00 0.00 0.00 47 864.6
20260502062505 56 202 0.0 0.0 0.00 0.00 0.00 45 864.6
20260502062005 57 202 0.0 0.0 0.00 0.00 0.00 45 864.6
20260502061505 57 202 0.0 0.0 0.00 0.00 0.00 46 864.6
20260502061005 54 202 0.0 0.0 0.00 0.00 0.00 47 864.6
20260502060505 54 202 0.0 0.0 0.00 0.00 0.00 46 864.6
20260502060005 55 202 0.0 0.0 0.00 0.00 0.00 45 864.6
20260502055505 55 202 0.0 0.0 0.00 0.00 0.00 44 864.5
20260502055005 57 202 0.0 0.0 0.00 0.00 0.00 43 864.6
20260502054505 60 202 0.0 0.0 0.00 0.00 0.00 42 864.6
20260502054005 62 202 0.0 0.0 0.00 0.00 0.00 42 864.6
20260502053505 64 202 0.0 0.0 0.00 0.00 0.00 41 864.6
20260502053005 68 202 0.0 0.0 0.00 0.00 0.00 41 864.6
20260502052505 69 202 0.0 0.0 0.00 0.00 0.00 42 864.7
20260502052005 66 202 0.0 0.0 0.00 0.00 0.00 46 864.7
20260502051505 61 202 0.0 0.0 0.00 0.00 0.00 47 864.7
20260502051005 59 202 0.0 0.0 0.00 0.00 0.00 49 864.6
20260502050505 57 202 0.0 0.0 0.00 0.00 0.00 52 864.6
20260502050005 51 202 0.0 0.0 0.00 0.00 0.00 55 864.6
20260502045505 48 202 0.0 0.0 0.00 0.00 0.00 57 864.6
20260502045005 46 202 0.0 0.0 0.00 0.00 0.00 59 864.6
20260502044505 43 180 0.0 0.0 0.00 0.00 0.00 60 864.8
20260502044005 43 180 0.0 0.0 0.00 0.00 0.00 60 864.7
20260502043505 42 247 0.0 0.0 0.00 0.00 0.00 62 864.7
20260502043005 41 225 0.0 0.0 0.00 0.00 0.00 62 864.7
20260502042505 41 180 0.0 0.0 0.00 0.00 0.00 62 864.7
20260502042005 41 315 0.0 0.0 0.00 0.00 0.00 63 864.6
20260502041505 39 337 0.0 0.0 0.00 0.00 0.00 64 864.6
20260502041005 39 337 0.0 0.0 0.00 0.00 0.00 64 864.6
20260502040505 38 0 0.0 0.0 0.00 0.00 0.00 65 864.6
20260502040005 38 0 0.0 0.0 0.00 0.00 0.00 64 864.7
20260502035505 38 22 0.0 0.0 0.00 0.00 0.00 64 864.6
20260502035005 38 337 0.0 0.0 0.00 0.00 0.00 64 864.6
20260502034505 38 337 0.0 0.0 0.00 0.00 0.00 64 864.6
20260502034005 38 337 0.0 0.0 0.00 0.00 0.00 65 864.7
20260502033505 38 337 0.0 0.0 0.00 0.00 0.00 65 864.6
20260502033005 38 180 0.0 0.0 0.00 0.00 0.00 65 864.7
20260502032505 38 157 0.0 0.0 0.00 0.00 0.00 64 864.7
20260502032005 38 180 0.0 0.0 0.00 0.00 0.00 63 864.6
20260502031505 39 0 0.0 0.0 0.00 0.00 0.00 63 864.6
20260502031005 39 157 0.0 0.0 0.00 0.00 0.00 63 864.6
20260502030505 39 22 0.0 0.0 0.00 0.00 0.00 63 864.7
20260502030005 39 157 0.0 0.0 0.00 0.00 0.00 63 864.7
20260502025505 39 247 0.0 0.0 0.00 0.00 0.00 62 864.7
20260502025005 39 315 0.0 0.0 0.00 0.00 0.00 62 864.6
20260502024506 39 22 0.0 0.0 0.00 0.00 0.00 62 864.9
20260502024005 39 270 0.0 0.0 0.00 0.00 0.00 62 864.8
20260502023505 39 180 0.0 0.0 0.00 0.00 0.00 61 864.9
20260502023005 39 0 0.0 0.0 0.00 0.00 0.00 61 864.9
20260502022505 39 315 0.0 0.0 0.00 0.00 0.00 61 864.7
20260502022005 39 157 0.0 0.0 0.00 0.00 0.00 60 865.0
20260502021505 39 0 0.0 0.0 0.00 0.00 0.00 60 864.9
20260502021005 39 180 0.0 0.0 0.00 0.00 0.00 61 865.0
20260502020506 39 337 0.0 0.0 0.00 0.00 0.00 61 864.9
20260502020006 39 292 0.0 0.0 0.00 0.00 0.00 61 865.1
20260502015505 39 180 0.0 0.0 0.00 0.00 0.00 62 865.1
20260502015006 39 292 0.0 0.0 0.00 0.00 0.00 61 865.0
20260502014506 39 337 0.0 0.0 0.00 0.00 0.00 61 865.0
20260502014006 39 292 0.0 0.0 0.00 0.00 0.00 62 865.1
20260502013506 39 315 0.0 0.0 0.00 0.00 0.00 63 865.1
20260502013006 39 315 0.0 1.0 0.00 0.00 0.00 63 865.1
20260502012506 39 0 0.0 1.0 0.00 0.00 0.00 63 865.2
20260502012006 39 180 0.0 0.0 0.00 0.00 0.00 62 865.1
20260502011506 39 45 0.0 0.0 0.00 0.00 0.00 62 865.1
20260502011006 39 0 0.0 0.0 0.00 0.00 0.00 63 865.2
20260502010506 39 337 0.0 0.0 0.00 0.00 0.00 64 865.2
20260502010006 39 337 0.0 2.0 0.00 0.00 0.00 63 865.2
20260502005506 39 112 0.0 3.0 0.00 0.00 0.00 63 865.2
20260502005006 39 157 0.0 5.0 0.00 0.00 0.00 63 865.3
20260502004506 39 180 1.0 5.0 0.00 0.00 0.00 65 865.3
20260502004006 39 0 0.0 4.0 0.00 0.00 0.00 64 865.3
20260502003506 39 67 0.0 4.0 0.00 0.00 0.00 64 865.4
20260502003006 39 90 0.0 5.0 0.00 0.00 0.00 65 865.4
20260502002506 39 315 0.0 6.0 0.00 0.00 0.00 65 865.2
20260502002006 39 135 0.0 6.0 0.00 0.00 0.00 66 865.3
20260502001506 39 315 0.0 6.0 0.00 0.00 0.00 66 865.2
20260502001006 39 180 2.0 5.0 0.00 0.00 0.00 66 865.4
20260502000506 39 180 2.0 5.0 0.00 0.00 0.00 67 865.5
20260502000006 39 22 0.0 6.0 0.00 0.00 0.00 67 865.5
20260501235506 39 135 0.0 6.0 0.00 0.00 0.00 67 865.5
20260501235006 39 180 4.0 6.0 0.00 0.00 0.00 67 865.4
20260501234506 39 180 4.0 6.0 0.00 0.00 0.00 67 865.4
20260501234006 39 180 4.0 6.0 0.00 0.00 0.00 67 865.6
20260501233506 39 180 3.0 5.0 0.00 0.00 0.00 66 865.5
20260501233006 39 180 1.0 6.0 0.00 0.00 0.00 67 865.7
20260501232506 39 180 2.0 7.0 0.00 0.00 0.00 67 865.6
20260501232006 39 180 6.0 6.0 0.00 0.00 0.00 68 865.6
20260501231506 39 180 0.0 7.0 0.00 0.00 0.00 67 865.5
20260501231006 39 180 2.0 6.0 0.00 0.00 0.00 67 865.6
20260501230506 40 180 4.0 5.0 0.00 0.00 0.00 67 865.6
20260501230006 40 180 2.0 6.0 0.00 0.00 0.00 67 865.8
20260501225506 40 180 4.0 6.0 0.00 0.00 0.00 67 865.6
20260501225006 40 180 2.0 4.0 0.00 0.00 0.00 67 865.7
20260501224506 41 180 1.0 6.0 0.00 0.00 0.00 67 865.7
20260501224006 41 180 3.0 4.0 0.00 0.00 0.00 67 865.7
20260501223506 41 180 2.0 4.0 0.00 0.00 0.00 66 865.7
20260501223006 41 180 1.0 2.0 0.00 0.00 0.00 66 865.7
20260501222506 41 180 0.0 2.0 0.00 0.00 0.00 65 865.7
20260501222006 41 180 0.0 4.0 0.00 0.00 0.00 65 865.7
20260501221506 42 180 0.0 3.0 0.00 0.00 0.00 64 865.6
20260501221006 42 180 2.0 3.0 0.00 0.00 0.00 64 865.8
20260501220506 42 180 0.0 3.0 0.00 0.00 0.00 63 865.8
20260501220006 42 180 0.0 4.0 0.00 0.00 0.00 63 865.6
20260501215506 42 180 0.0 3.0 0.00 0.00 0.00 62 865.6
20260501215006 42 202 0.0 4.0 0.00 0.00 0.00 62 865.7
20260501214506 42 22 0.0 5.0 0.00 0.00 0.00 62 865.7
20260501214006 43 225 0.0 4.0 0.00 0.00 0.00 62 865.5
20260501213506 43 180 0.0 0.0 0.00 0.00 0.00 62 865.6
20260501213006 43 157 2.0 2.0 0.00 0.00 0.00 62 865.5
20260501212506 43 180 2.0 4.0 0.00 0.00 0.00 63 865.5
20260501212006 43 135 0.0 4.0 0.00 0.00 0.00 63 865.5
20260501211506 43 157 0.0 0.0 0.00 0.00 0.00 64 865.6
20260501211006 43 180 0.0 0.0 0.00 0.00 0.00 64 865.6
20260501210506 43 315 0.0 0.0 0.00 0.00 0.00 64 865.5
20260501210006 43 22 0.0 0.0 0.00 0.00 0.00 66 865.5
20260501205506 42 315 0.0 0.0 0.00 0.00 0.00 66 865.4
20260501205006 42 0 0.0 0.0 0.00 0.00 0.00 67 865.4
20260501204506 42 67 0.0 0.0 0.00 0.00 0.00 67 865.4
20260501204006 42 180 0.0 0.0 0.00 0.00 0.00 68 865.4
20260501203506 42 315 0.0 0.0 0.00 0.00 0.00 68 865.4
20260501203006 42 315 0.0 0.0 0.00 0.00 0.00 67 865.3
20260501202506 42 315 0.0 0.0 0.00 0.00 0.00 67 865.4
20260501202006 42 315 0.0 0.0 0.00 0.00 0.00 67 865.4
20260501201506 42 315 0.0 0.0 0.00 0.00 0.00 67 865.4
20260501201006 42 315 0.0 0.0 0.00 0.00 0.00 67 865.5
20260501200506 42 315 0.0 0.0 0.00 0.00 0.00 67 865.4
20260501200006 42 315 0.0 0.0 0.00 0.00 0.00 67 865.4
20260501195508 42 337 0.0 0.0 0.00 0.00 0.00 66 865.4
20260501195006 42 337 0.0 0.0 0.00 0.00 0.00 66 865.2
20260501194506 42 337 0.0 0.0 0.00 0.00 0.00 66 865.3
20260501194006 42 315 0.0 0.0 0.00 0.00 0.00 66 865.2
20260501193506 42 315 0.0 0.0 0.00 0.00 0.00 66 865.0
20260501193006 42 315 0.0 0.0 0.00 0.00 0.00 66 865.1
20260501192506 42 315 0.0 0.0 0.00 0.00 0.00 66 865.1
20260501192006 42 292 0.0 0.0 0.00 0.00 0.00 66 865.0
20260501191506 42 292 0.0 0.0 0.00 0.00 0.00 66 865.0
20260501191006 42 315 0.0 0.0 0.00 0.00 0.00 66 865.0
20260501190506 41 337 0.0 0.0 0.00 0.00 0.00 65 865.0
20260501190006 41 337 0.0 0.0 0.00 0.00 0.00 65 864.8
20260501185506 41 337 0.0 0.0 0.00 0.00 0.00 65 864.7
20260501185006 41 337 0.0 0.0 0.00 0.00 0.00 64 864.7
20260501184506 41 337 0.0 0.0 0.00 0.00 0.00 64 864.7
20260501184006 41 337 0.0 0.0 0.00 0.00 0.00 63 864.5
20260501183506 41 337 0.0 0.0 0.00 0.00 0.00 63 864.5
20260501183006 42 337 0.0 0.0 0.00 0.00 0.00 63 864.5
20260501182506 42 337 0.0 0.0 0.00 0.00 0.00 62 864.5
20260501182006 42 337 0.0 0.0 0.00 0.00 0.00 62 864.5